Location: ?????????
(38.5999°N, 22.7695°E)
Time: 04:36:14
(UTC+00:00)

PAYLOAD A - Pass Details

Date: 06 August 2024
Orbit: 690 x 831 km, 98.5° (Epoch: 09 September)

Event Time Altitude Azimuth Distance (km) Brightness Sun altitude
Rises 00:55:15 0° 34° (NE) 3,230 8.6 -25.8°
Reaches altitude 10° 00:58:45 10° 59° (ENE) 2,266 7.3 -25.3°
Maximum altitude 01:01:20 14° 91° (E) 1,970 6.5 -25.0°
Drops below altitude 10° 01:03:51 10° 122° (ESE) 2,213 6.5 -24.7°
Enters shadow 01:05:46 - 139° (SE) 2,677 6.7 -24.5°
